Estación de La Cruz
Ultimos registro cada 15 minutos 86
| N° | Estación | Fecha / Hora | Temperatura | Humedad | Lluvia | Velocidad | Dirección | Radiación | Presion |
| 86 | La Cruz | 04-05-2026 21:15 | 11,1 | 87,5 | 0 | 0 | 171 | 0,6 | 996 |
| 85 | La Cruz | 04-05-2026 21:00 | 11 | 85,6 | 0 | 0 | 171 | 0,6 | 995,9 |
| 84 | La Cruz | 04-05-2026 20:45 | 11,5 | 84,7 | 0 | 0 | 171 | 0,6 | 996 |
| 83 | La Cruz | 04-05-2026 20:30 | 12 | 84,5 | 0 | 0 | 171 | 0,6 | 995,9 |
| 82 | La Cruz | 04-05-2026 20:15 | 12,5 | 83 | 0 | 0 | 171 | 0,6 | 995,8 |
| 81 | La Cruz | 04-05-2026 20:00 | 12,7 | 81,1 | 0 | 0 | 171 | 0,6 | 995,6 |
| 80 | La Cruz | 04-05-2026 19:45 | 13,5 | 80,8 | 0 | 0 | 171 | 0,6 | 995,6 |
| 79 | La Cruz | 04-05-2026 19:30 | 14,1 | 77 | 0 | 0 | 171 | 0,6 | 995,4 |
| 78 | La Cruz | 04-05-2026 19:15 | 15,3 | 74,6 | 0 | 0 | 171 | 0,6 | 995,4 |
| 77 | La Cruz | 04-05-2026 19:00 | 15,9 | 72,6 | 0 | 0 | 171 | 0,6 | 995,6 |
| 76 | La Cruz | 04-05-2026 18:45 | 16,6 | 71,4 | 0 | 0 | 171 | 0,6 | 995,3 |
| 75 | La Cruz | 04-05-2026 18:30 | 18,2 | 67,6 | 0 | 0 | 170 | 0,6 | 995,3 |
| 74 | La Cruz | 04-05-2026 18:15 | 19,1 | 63,2 | 0 | 0 | 168 | 0,6 | 995 |
| 73 | La Cruz | 04-05-2026 18:00 | 20 | 56,9 | 0 | 0 | 168 | 1,9 | 994,9 |
| 72 | La Cruz | 04-05-2026 17:45 | 21,6 | 51,9 | 0 | 0 | 168 | 6,9 | 994,8 |
| 71 | La Cruz | 04-05-2026 17:30 | 23,4 | 46,9 | 0 | 0 | 205 | 18,1 | 994,6 |
| 70 | La Cruz | 04-05-2026 17:15 | 24,2 | 43 | 0 | 0 | 243 | 31,9 | 994,8 |
| 69 | La Cruz | 04-05-2026 17:00 | 25 | 39,5 | 0 | 0 | 222 | 35,6 | 994,9 |
| 68 | La Cruz | 04-05-2026 16:45 | 25,6 | 36,8 | 0 | 0 | 223 | 36,9 | 995 |
| 67 | La Cruz | 04-05-2026 16:30 | 26,5 | 34,7 | 0 | 0 | 213 | 46,9 | 995,2 |
| 66 | La Cruz | 04-05-2026 16:15 | 26,8 | 30,3 | 0 | 0 | 223 | 45,6 | 995 |
| 65 | La Cruz | 04-05-2026 16:00 | 26,8 | 28,2 | 0 | 0 | 204 | 325,6 | 995,1 |
| 64 | La Cruz | 04-05-2026 15:45 | 27,1 | 28,6 | 0 | 0 | 190 | 193,1 | 994,9 |
| 63 | La Cruz | 04-05-2026 15:30 | 27,1 | 29,2 | 0 | 0 | 204 | 69,4 | 994,8 |
| 62 | La Cruz | 04-05-2026 15:15 | 27,2 | 28,1 | 0 | 0,5 | 254 | 305,6 | 995 |
| 61 | La Cruz | 04-05-2026 15:00 | 27,8 | 28,2 | 0 | 0 | 191 | 474,4 | 995 |
| 60 | La Cruz | 04-05-2026 14:45 | 26,9 | 29,8 | 0 | 0,5 | 202 | 491,9 | 995,2 |
| 59 | La Cruz | 04-05-2026 14:30 | 26,9 | 29,1 | 0 | 0 | 204 | 428,1 | 995,4 |
| 58 | La Cruz | 04-05-2026 14:15 | 27,3 | 27,4 | 0 | 0 | 215 | 479,4 | 995,4 |
| 57 | La Cruz | 04-05-2026 14:00 | 26,9 | 26,8 | 0 | 0 | 204 | 551,9 | 995,4 |
| 56 | La Cruz | 04-05-2026 13:45 | 26 | 28,1 | 0 | 0 | 174 | 558,1 | 995,7 |
| 55 | La Cruz | 04-05-2026 13:30 | 26,6 | 26,9 | 0 | 0 | 188 | 615,6 | 995,8 |
| 54 | La Cruz | 04-05-2026 13:15 | 26,4 | 26,4 | 0 | 0 | 157 | 615,6 | 996,1 |
| 53 | La Cruz | 04-05-2026 13:00 | 26,4 | 26,1 | 0 | 0 | 181 | 679,4 | 996,4 |
| 52 | La Cruz | 04-05-2026 12:45 | 25,7 | 28,4 | 0 | 0 | 161 | 640,6 | 996,8 |
| 51 | La Cruz | 04-05-2026 12:30 | 25,4 | 28 | 0 | 0 | 161 | 543,1 | 996,9 |
| 50 | La Cruz | 04-05-2026 12:15 | 25,1 | 29,2 | 0 | 0 | 195 | 623,1 | 997 |
| 49 | La Cruz | 04-05-2026 12:00 | 24,4 | 27,8 | 0 | 0 | 223 | 586,9 | 997,4 |
| 48 | La Cruz | 04-05-2026 11:45 | 23,8 | 29 | 0 | 0 | 180 | 635,6 | 997,7 |
| 47 | La Cruz | 04-05-2026 11:30 | 24,3 | 28,4 | 0 | 0 | 197 | 569,4 | 997,7 |
| 46 | La Cruz | 04-05-2026 11:15 | 22,9 | 31,3 | 0 | 0 | 194 | 586,9 | 997,7 |
| 45 | La Cruz | 04-05-2026 11:00 | 21,9 | 32,4 | 0 | 0 | 215 | 550,6 | 997,8 |
| 44 | La Cruz | 04-05-2026 10:45 | 20,4 | 34,3 | 0 | 0 | 117 | 331,9 | 997,9 |
| 43 | La Cruz | 04-05-2026 10:30 | 21 | 35,4 | 0 | 0 | 147 | 380,6 | 997,9 |
| 42 | La Cruz | 04-05-2026 10:15 | 20,3 | 39 | 0 | 0 | 218 | 499,4 | 998 |
| 41 | La Cruz | 04-05-2026 10:00 | 18,8 | 38,9 | 0 | 0 | 180 | 421,9 | 998,1 |
| 40 | La Cruz | 04-05-2026 09:45 | 16,9 | 46,9 | 0 | 0 | 237 | 209,4 | 998,2 |
| 39 | La Cruz | 04-05-2026 09:30 | 16 | 49,9 | 0 | 0 | 312 | 124,4 | 998,1 |
| 38 | La Cruz | 04-05-2026 09:15 | 14,9 | 51,7 | 0 | 0 | 326 | 60,6 | 998 |
| 37 | La Cruz | 04-05-2026 09:00 | 13,2 | 56,6 | 0 | 0 | 292 | 116,9 | 997,9 |
| 36 | La Cruz | 04-05-2026 08:45 | 10,9 | 63,7 | 0 | 0 | 191 | 95,6 | 997,9 |
| 35 | La Cruz | 04-05-2026 08:30 | 8,9 | 67,1 | 0 | 0 | 191 | 50,6 | 998 |
| 34 | La Cruz | 04-05-2026 08:15 | 7,2 | 73,4 | 0 | 0 | 191 | 41,9 | 998,1 |
| 33 | La Cruz | 04-05-2026 08:00 | 4,9 | 83,2 | 0 | 0 | 191 | 16,9 | 997,8 |
| 32 | La Cruz | 04-05-2026 07:45 | 3,7 | 83,5 | 0 | 0 | 191 | 8,1 | 997,7 |
| 31 | La Cruz | 04-05-2026 07:30 | 3,7 | 82,3 | 0 | 0 | 191 | 4,4 | 997,7 |
| 30 | La Cruz | 04-05-2026 07:15 | 4,4 | 83,1 | 0 | 0 | 191 | 0,6 | 997,5 |
| 29 | La Cruz | 04-05-2026 07:00 | 4,6 | 83,5 | 0 | 0 | 191 | 0,6 | 997,4 |
| 28 | La Cruz | 04-05-2026 06:45 | 4,3 | 82,1 | 0 | 0 | 191 | 0,6 | 997,4 |
| 27 | La Cruz | 04-05-2026 06:30 | 4,2 | 80,2 | 0 | 0 | 191 | 0,6 | 997,4 |
| 26 | La Cruz | 04-05-2026 06:15 | 5,2 | 78,7 | 0 | 0 | 191 | 0,6 | 997,2 |
| 25 | La Cruz | 04-05-2026 06:00 | 6 | 74,3 | 0 | 0 | 191 | 0,6 | 997,1 |
| 24 | La Cruz | 04-05-2026 05:45 | 5 | 79,1 | 0 | 0 | 191 | 0,6 | 997,2 |
| 23 | La Cruz | 04-05-2026 05:30 | 4,2 | 81 | 0 | 0 | 191 | 0,6 | 997,2 |
| 22 | La Cruz | 04-05-2026 05:15 | 4,9 | 79,5 | 0 | 0 | 191 | 0,6 | 997,2 |
| 21 | La Cruz | 04-05-2026 05:00 | 5,5 | 76,1 | 0 | 0 | 191 | 0,6 | 996,8 |
| 20 | La Cruz | 04-05-2026 04:45 | 6,5 | 72,8 | 0 | 0 | 191 | 0,6 | 996,7 |
| 19 | La Cruz | 04-05-2026 04:30 | 5,2 | 77,9 | 0 | 0 | 191 | 0,6 | 996,8 |
| 18 | La Cruz | 04-05-2026 04:15 | 4,7 | 78,5 | 0 | 0 | 191 | 0,6 | 996,9 |
| 17 | La Cruz | 04-05-2026 04:00 | 5,6 | 80,2 | 0 | 0 | 191 | 0,6 | 997 |
| 16 | La Cruz | 04-05-2026 03:45 | 4,7 | 79,3 | 0 | 0 | 191 | 0,6 | 997,2 |
| 15 | La Cruz | 04-05-2026 03:30 | 4,9 | 79,7 | 0 | 0 | 191 | 0,6 | 997,2 |
| 14 | La Cruz | 04-05-2026 03:15 | 5,1 | 79,3 | 0 | 0 | 191 | 0,6 | 997,2 |
| 13 | La Cruz | 04-05-2026 03:00 | 5,1 | 77,6 | 0 | 0 | 191 | 0,6 | 997,3 |
| 12 | La Cruz | 04-05-2026 02:45 | 5,9 | 76,6 | 0 | 0 | 191 | 0,6 | 997,3 |
| 11 | La Cruz | 04-05-2026 02:30 | 6,3 | 74,7 | 0 | 0 | 191 | 0,6 | 997,5 |
| 10 | La Cruz | 04-05-2026 02:15 | 6,2 | 75,2 | 0 | 0 | 191 | 0,6 | 997,8 |
| 9 | La Cruz | 04-05-2026 02:00 | 4,9 | 80,6 | 0 | 0 | 191 | 0,6 | 997,9 |
| 8 | La Cruz | 04-05-2026 01:45 | 5,3 | 81,8 | 0 | 0 | 191 | 0,6 | 998,2 |
| 7 | La Cruz | 04-05-2026 01:30 | 5,3 | 82,4 | 0 | 0 | 191 | 0,6 | 998,4 |
| 6 | La Cruz | 04-05-2026 01:15 | 5,6 | 83,1 | 0 | 0 | 191 | 0,6 | 998,3 |
| 5 | La Cruz | 04-05-2026 01:00 | 5,5 | 81,9 | 0 | 0 | 191 | 0,6 | 998,4 |
| 4 | La Cruz | 04-05-2026 00:45 | 5,4 | 82 | 0 | 0 | 191 | 0,6 | 998,5 |
| 3 | La Cruz | 04-05-2026 00:30 | 5,4 | 79,2 | 0 | 0 | 191 | 0,6 | 998,6 |
| 2 | La Cruz | 04-05-2026 00:15 | 6,4 | 81 | 0 | 0 | 191 | 0,6 | 998,5 |
| 1 | La Cruz | 04-05-2026 00:00 | 6,3 | 76,7 | 0 | 0 | 191 | 0,6 | 998,7 |